Location: Mahannah Oil Field
(37.4664°N, 96.6003°W)
Time: 15:44:59
(UTC+00:00)

Vanguard 2 Rocket - Pass Details

Date: 26 January 2021
Orbit: 554 x 3325 km, 32.9° (Epoch: 06 March)

Event Time Altitude Azimuth Distance (km) Brightness Sun altitude
Rises 19:44:56 0° 230° (SW) 7,254 12.3 31.9°
Reaches altitude 10° 19:50:20 10° 226° (SW) 6,079 12.2 31.6°
Maximum altitude 20:07:13 49° 159° (SSE) 2,913 10.4 30.3°
Drops below altitude 10° 20:17:49 10° 89° (E) 3,947 10.0 29.4°
Sets 20:20:31 0° 84° (E) 4,623 10.2 29.2°
